Change the Weather History Date:

Wednesday, February 5, 2014

  Actual Average Record
Temperature  
Mean Temperature -6 °F -  
Max Temperature 6 °F 39 °F 62 °F (2015)
Min Temperature -18 °F 13 °F -18 °F (2014)
Degree Days  
Heating Degree Days 71    
Moisture  
Dew Point -12 °F    
Average Humidity 69    
Maximum Humidity 78    
Minimum Humidity 56    
Precipitation  
Precipitation 0.00 in - - ()
Sea Level Pressure  
Sea Level Pressure 30.45 in    
Wind  
Wind Speed 9 mph (NW)    
Max Wind Speed 14 mph    
Max Gust Speed -    
Visibility 10 miles    
Events      
Averages and records for this station are not official NWS values.
T = Trace of Precipitation, MM = Missing Value Source: NWS Daily Summary

Daily Weather History Graph

Daily Weather History Graph

Search for Another Location

Airport or City:

Trip Planner

Search our weather history database for the weather conditions in past years. The results will help you decide how hot, cold, wet, or windy it might be!

Date:

Astronomy

Feb. 05, 2014 Rise Set
Actual Time 6:54 AM MST 5:12 PM MST
Civil Twilight 6:26 AM MST 5:40 PM MST
Nautical Twilight 5:53 AM MST 6:13 PM MST
Astronomical Twilight 5:21 AM MST 6:45 PM MST
Moon 10:08 AM MST (2/5) No Moon Set
Length of Visible Light 11h 14m
Length of Day
10h 17m
Waxing Crescent, 40% of the Moon is Illuminated
Feb 5
Waxing Crescent
Feb 6
First Quarter
Feb 14
Full
Feb 22
Last Quarter
Mar 1
New

Hourly Weather History & Observations

Time (MST) Temp. Windchill Dew Point Humidity Pressure Visibility Wind Dir Wind Speed Gust Speed Precip Events Conditions
12:15 AM -0.4 °F -17.6 °F -7.6 °F 72% 30.40 in 10.0 mi NNW 11.5 mph - N/A   Overcast
12:35 AM -0.4 °F -18.4 °F -7.6 °F 72% 30.39 in 10.0 mi NNW 12.7 mph - N/A   Overcast
12:55 AM 1.4 °F -16.1 °F -5.8 °F 72% 30.40 in 7.0 mi NNW 12.7 mph - N/A   Mostly Cloudy
1:15 AM -0.4 °F -17.6 °F -7.6 °F 72% 30.40 in 5.0 mi NNW 11.5 mph - N/A   Haze
1:35 AM -0.4 °F -17.6 °F -7.6 °F 72% 30.41 in 10.0 mi NNW 11.5 mph - N/A   Scattered Clouds
1:55 AM -0.4 °F -17.6 °F -7.6 °F 72% 30.41 in 10.0 mi NNW 11.5 mph - N/A   Clear
2:15 AM -4.0 °F -22.1 °F -9.4 °F 78% 30.42 in 10.0 mi NNW 11.5 mph - N/A   Clear
2:35 AM -4.0 °F -21.2 °F -11.2 °F 71% 30.43 in 10.0 mi NNW 10.4 mph - N/A   Clear
2:55 AM -5.8 °F -24.4 °F -11.2 °F 77% 30.43 in 10.0 mi NW 11.5 mph - N/A   Clear
3:15 AM -5.8 °F -23.4 °F -13.0 °F 71% 30.43 in 10.0 mi NW 10.4 mph - N/A   Clear
3:35 AM -5.8 °F -24.4 °F -13.0 °F 71% 30.43 in 10.0 mi NW 11.5 mph - N/A   Clear
3:55 AM -5.8 °F -25.2 °F -13.0 °F 71% 30.43 in 10.0 mi NNW 12.7 mph - N/A   Clear
4:15 AM -5.8 °F -26.0 °F -11.2 °F 77% 30.43 in 10.0 mi NNW 13.8 mph - N/A   Clear
4:35 AM -7.6 °F -27.5 °F -14.8 °F 71% 30.43 in 10.0 mi NNW 12.7 mph - N/A   Clear
4:55 AM -5.8 °F -23.4 °F -11.2 °F 77% 30.44 in 10.0 mi NW 10.4 mph - N/A   Clear
5:15 AM -5.8 °F -22.4 °F -11.2 °F 77% 30.45 in 10.0 mi NW 9.2 mph - N/A   Clear
5:35 AM -5.8 °F -24.4 °F -13.0 °F 71% 30.44 in 10.0 mi NW 11.5 mph - N/A   Clear
5:55 AM -5.8 °F -23.4 °F -11.2 °F 77% 30.45 in 10.0 mi NW 10.4 mph - N/A   Clear
6:15 AM -7.6 °F -25.7 °F -14.8 °F 71% 30.44 in 10.0 mi NW 10.4 mph - N/A   Clear
6:35 AM -7.6 °F -26.6 °F -14.8 °F 71% 30.45 in 10.0 mi NW 11.5 mph - N/A   Clear
6:55 AM -7.6 °F -24.6 °F -14.8 °F 71% 30.47 in 10.0 mi NW 9.2 mph - N/A   Clear
7:15 AM -5.8 °F -19.9 °F -13.0 °F 71% 30.47 in 10.0 mi NW 6.9 mph - N/A   Clear
7:35 AM -9.4 °F -24.3 °F -16.6 °F 71% 30.47 in 7.0 mi NW 6.9 mph - N/A   Clear
7:55 AM -9.4 °F -26.8 °F -16.6 °F 71% 30.47 in 7.0 mi NW 9.2 mph - N/A   Clear
8:15 AM -5.8 °F -19.9 °F -13.0 °F 71% 30.49 in 10.0 mi WNW 6.9 mph - N/A   Clear
8:35 AM -5.8 °F -16.7 °F -11.2 °F 77% 30.49 in 10.0 mi NW 4.6 mph - N/A   Clear
8:55 AM -0.4 °F -13.4 °F -7.6 °F 72% 30.49 in 10.0 mi NW 6.9 mph - N/A   Clear
9:15 AM -0.4 °F -15.7 °F -7.6 °F 72% 30.50 in 10.0 mi NW 9.2 mph - N/A   Clear
9:35 AM 1.4 °F -12.5 °F -7.6 °F 66% 30.50 in 10.0 mi NW 8.1 mph - N/A   Clear
9:55 AM 1.4 °F -11.3 °F -7.6 °F 66% 30.50 in 10.0 mi NW 6.9 mph - N/A   Clear
10:15 AM 5.0 °F -6.9 °F -5.8 °F 61% 30.51 in 10.0 mi NW 6.9 mph - N/A   Clear
10:35 AM 5.0 °F -5.6 °F -5.8 °F 61% 30.51 in 10.0 mi NNW 5.8 mph - N/A   Clear
10:55 AM 5.0 °F -6.9 °F -5.8 °F 61% 30.51 in 10.0 mi NNW 6.9 mph - N/A   Clear
11:15 AM 5.0 °F -5.6 °F -5.8 °F 61% 30.49 in 10.0 mi NNW 5.8 mph - N/A   Clear
11:35 AM 5.0 °F -8.1 °F -5.8 °F 61% 30.49 in 10.0 mi North 8.1 mph - N/A   Clear
11:55 AM 5.0 °F -6.9 °F -5.8 °F 61% 30.48 in 10.0 mi North 6.9 mph - N/A   Clear
12:15 PM 6.8 °F -5.9 °F -4.0 °F 61% 30.47 in 10.0 mi North 8.1 mph - N/A   Clear
12:35 PM 6.8 °F -3.5 °F -4.0 °F 61% 30.47 in 10.0 mi North 5.8 mph - N/A   Clear
12:55 PM 6.8 °F -3.5 °F -4.0 °F 61% 30.45 in 10.0 mi North 5.8 mph - N/A   Clear
1:15 PM 6.8 °F -4.8 °F -4.0 °F 61% 30.45 in 10.0 mi North 6.9 mph - N/A   Clear
1:35 PM 6.8 °F -2.0 °F -4.0 °F 61% 30.44 in 10.0 mi NNW 4.6 mph - N/A   Clear
1:55 PM 6.8 °F -4.8 °F -5.8 °F 56% 30.44 in 10.0 mi North 6.9 mph - N/A   Clear
2:15 PM 6.8 °F -2.0 °F -5.8 °F 56% 30.44 in 10.0 mi NNW 4.6 mph - N/A   Clear
2:35 PM 6.8 °F -3.5 °F -5.8 °F 56% 30.44 in 10.0 mi NNW 5.8 mph - N/A   Clear
2:55 PM 6.8 °F -3.5 °F -5.8 °F 56% 30.45 in 10.0 mi NNW 5.8 mph - N/A   Clear
3:15 PM 5.0 °F -4.1 °F -5.8 °F 61% 30.44 in 10.0 mi NNW 4.6 mph - N/A   Clear
3:35 PM 5.0 °F -5.6 °F -5.8 °F 61% 30.44 in 10.0 mi NNW 5.8 mph - N/A   Clear
3:55 PM 5.0 °F -6.9 °F -5.8 °F 61% 30.44 in 10.0 mi North 6.9 mph - N/A   Clear
4:15 PM 5.0 °F -2.1 °F -5.8 °F 61% 30.44 in 10.0 mi North 3.5 mph - N/A   Clear
4:35 PM 3.2 °F -4.2 °F -5.8 °F 66% 30.44 in 10.0 mi North 3.5 mph - N/A   Clear
4:55 PM 1.4 °F -6.2 °F -7.6 °F 66% 30.44 in 10.0 mi NNW 3.5 mph - N/A   Clear
5:15 PM 1.4 °F -8.3 °F -5.8 °F 72% 30.44 in 10.0 mi North 4.6 mph - N/A   Clear
5:35 PM -0.4 °F - -9.4 °F 66% 30.45 in 10.0 mi Calm Calm - N/A   Scattered Clouds
5:55 PM -4.0 °F - -9.4 °F 78% 30.45 in 10.0 mi Calm Calm - N/A   Clear
6:15 PM -7.6 °F - -14.8 °F 71% 30.45 in 10.0 mi Calm Calm - N/A   Clear
6:35 PM -7.6 °F - -14.8 °F 71% 30.45 in 10.0 mi Calm Calm - N/A   Clear
6:55 PM -9.4 °F - -14.8 °F 77% 30.45 in 10.0 mi Calm Calm - N/A   Scattered Clouds
7:15 PM -13.0 °F -22.7 °F -18.4 °F 77% 30.44 in 10.0 mi West 3.5 mph - N/A   Scattered Clouds
7:35 PM -7.6 °F -16.5 °F -13.0 °F 77% 30.44 in 10.0 mi West 3.5 mph - N/A   Clear
7:55 PM -13.0 °F - -18.4 °F 77% 30.44 in 10.0 mi Calm Calm - N/A   Clear
8:15 PM -13.0 °F -27.0 °F -18.4 °F 77% 30.43 in 10.0 mi West 5.8 mph - N/A   Clear
8:35 PM -13.0 °F -30.0 °F -18.4 °F 77% 30.44 in 10.0 mi West 8.1 mph - N/A   Clear
8:55 PM -14.8 °F -32.2 °F -22.0 °F 70% 30.44 in 10.0 mi West 8.1 mph - N/A   Clear
9:15 PM -14.8 °F -30.8 °F -22.0 °F 70% 30.43 in 10.0 mi West 6.9 mph - N/A   Scattered Clouds
9:35 PM -14.8 °F -30.8 °F -20.2 °F 77% 30.43 in 10.0 mi West 6.9 mph - N/A   Scattered Clouds
9:55 PM -14.8 °F -24.8 °F -22.0 °F 70% 30.42 in 10.0 mi WNW 3.5 mph - N/A   Clear
10:15 PM -18.4 °F -31.4 °F -25.6 °F 70% 30.42 in 10.0 mi WNW 4.6 mph - N/A   Clear
10:35 PM -18.4 °F -28.9 °F -25.6 °F 70% 30.41 in 10.0 mi WNW 3.5 mph - N/A   Clear
10:55 PM -18.4 °F - -25.6 °F 70% 30.41 in 10.0 mi Calm Calm - N/A   Clear
11:15 PM -18.4 °F - -25.6 °F 70% 30.40 in 10.0 mi Calm Calm - N/A   Mostly Cloudy
11:35 PM -14.8 °F -24.8 °F -22.0 °F 70% 30.40 in 10.0 mi West 3.5 mph - N/A   Overcast
11:55 PM -13.0 °F - -18.4 °F 77% 30.39 in 10.0 mi Calm Calm - N/A   Overcast